| time (UTC) | temp F | wind direction | speed MPH | gust MPH | rain 1hr in | rain 24hr in | rain mn in | humidity % | barometer mb |
| 20260906103039 | 69 | 94 | 0.0 | 2.0 | 0.00 | 0.00 | 0.00 | 96 | 1016.1 |
| 20260906101039 | 70 | 69 | 5.0 | 5.0 | 0.00 | 0.00 | 0.00 | 97 | 1016.1 |
| 20260906100039 | 70 | 82 | 0.0 | 8.0 | 0.00 | 0.00 | 0.00 | 97 | 1016.1 |
| 20260906095039 | 70 | 37 | 0.0 | 9.0 | 0.00 | 0.00 | 0.00 | 97 | 1016.0 |
| 20260906093038 | 71 | 111 | 6.0 | 6.0 | 0.00 | 0.00 | 0.00 | 97 | 1016.1 |
| 20260906092040 | 71 | 336 | 1.0 | 6.0 | 0.00 | 0.00 | 0.00 | 96 | 1016.1 |
| 20260906091039 | 71 | 113 | 2.0 | 7.0 | 0.00 | 0.00 | 0.00 | 96 | 1016.1 |
| 20260906090039 | 71 | 56 | 1.0 | 5.0 | 0.00 | 0.00 | 0.00 | 96 | 1016.2 |
| 20260906085040 | 71 | 344 | 3.0 | 5.0 | 0.00 | 0.00 | 0.00 | 96 | 1016.1 |
| 20260906084039 | 71 | 28 | 1.0 | 4.0 | 0.00 | 0.00 | 0.00 | 96 | 1016.1 |
| 20260906083038 | 71 | 62 | 1.0 | 3.0 | 0.00 | 0.00 | 0.00 | 96 | 1016.1 |
| 20260906082038 | 71 | 73 | 0.0 | 4.0 | 0.00 | 0.00 | 0.00 | 96 | 1016.1 |
| 20260906081039 | 71 | 82 | 0.0 | 4.0 | 0.00 | 0.00 | 0.00 | 96 | 1015.8 |
| 20260906075038 | 71 | 131 | 0.0 | 6.0 | 0.00 | 0.00 | 0.00 | 95 | 1015.6 |
| 20260906074039 | 71 | 113 | 4.0 | 8.0 | 0.00 | 0.00 | 0.00 | 95 | 1015.7 |
| 20260906073038 | 71 | 74 | 1.0 | 4.0 | 0.00 | 0.00 | 0.00 | 95 | 1015.8 |
| 20260906072038 | 71 | 15 | 2.0 | 6.0 | 0.00 | 0.00 | 0.00 | 95 | 1015.9 |
| 20260906071038 | 71 | 97 | 1.0 | 7.0 | 0.00 | 0.00 | 0.00 | 94 | 1016.0 |
| 20260906070039 | 71 | 59 | 5.0 | 9.0 | 0.00 | 0.00 | 0.00 | 94 | 1016.0 |
| 20260906065038 | 71 | 65 | 3.0 | 5.0 | 0.00 | 0.00 | 0.00 | 94 | 1016.2 |
| 20260906064038 | 71 | 26 | 1.0 | 6.0 | 0.00 | 0.00 | 0.00 | 94 | 1016.2 |
| 20260906063038 | 71 | 15 | 1.0 | 9.0 | 0.00 | 0.00 | 0.00 | 94 | 1016.3 |
| 20260906062038 | 71 | 11 | 3.0 | 5.0 | 0.00 | 0.00 | 0.00 | 94 | 1016.4 |
| 20260906061038 | 71 | 62 | 2.0 | 4.0 | 0.00 | 0.00 | 0.00 | 94 | 1016.3 |
| 20260906060038 | 71 | 323 | 2.0 | 6.0 | 0.00 | 0.00 | 0.00 | 94 | 1016.1 |
| 20260906055038 | 71 | 360 | 2.0 | 4.0 | 0.00 | 0.00 | 0.00 | 94 | 1015.9 |
| 20260906053038 | 71 | 355 | 1.0 | 9.0 | 0.00 | 0.00 | 0.00 | 94 | 1015.8 |
| 20260906052038 | 71 | 26 | 1.0 | 4.0 | 0.00 | 0.00 | 0.00 | 94 | 1015.8 |
| 20260906051038 | 71 | 97 | 3.0 | 6.0 | 0.00 | 0.00 | 0.00 | 94 | 1015.8 |
| 20260906050038 | 71 | 22 | 2.0 | 6.0 | 0.00 | 0.00 | 0.00 | 94 | 1015.8 |
| 20260906045038 | 70 | 71 | 3.0 | 7.0 | 0.00 | 0.00 | 0.00 | 94 | 1015.7 |
| 20260906044038 | 71 | 13 | 0.0 | 8.0 | 0.00 | 0.00 | 0.00 | 94 | 1015.6 |
| 20260906043038 | 71 | 41 | 1.0 | 5.0 | 0.00 | 0.00 | 0.00 | 94 | 1015.4 |
| 20260906042038 | 71 | 67 | 0.0 | 4.0 | 0.00 | 0.00 | 0.00 | 94 | 1015.6 |
| 20260906041038 | 71 | 348 | 0.0 | 6.0 | 0.00 | 0.00 | 0.00 | 93 | 1015.5 |
| 20260906035038 | 72 | 313 | 4.0 | 10.0 | 0.00 | 0.00 | 0.00 | 93 | 1015.6 |
| 20260906034038 | 72 | 329 | 3.0 | 6.0 | 0.00 | 0.00 | 0.00 | 93 | 1015.6 |
| 20260906033038 | 72 | 112 | 0.0 | 9.0 | 0.00 | 0.00 | 0.00 | 92 | 1015.5 |
| 20260906030038 | 73 | 61 | 5.0 | 8.0 | 0.00 | 0.00 | 0.00 | 91 | 1015.0 |
| 20260906025037 | 73 | 110 | 1.0 | 11.0 | 0.00 | 0.00 | 0.00 | 90 | 1014.9 |
| 20260906023037 | 74 | 87 | 5.0 | 10.0 | 0.00 | 0.00 | 0.00 | 90 | 1015.1 |
| 20260906022038 | 75 | 27 | 0.0 | 10.0 | 0.00 | 0.00 | 0.00 | 89 | 1014.9 |
| 20260906021037 | 76 | 12 | 4.0 | 9.0 | 0.00 | 0.00 | 0.00 | 89 | 1014.8 |
| 20260906020038 | 76 | 128 | 1.0 | 8.0 | 0.00 | 0.00 | 0.00 | 88 | 1014.7 |
| 20260906015037 | 77 | 309 | 2.0 | 12.0 | 0.00 | 0.00 | 0.00 | 87 | 1014.5 |
| 20260906014037 | 77 | 331 | 3.0 | 13.0 | 0.00 | 0.00 | 0.00 | 86 | 1014.3 |
| 20260906012037 | 79 | 342 | 3.0 | 9.0 | 0.00 | 0.00 | 0.00 | 84 | 1014.2 |
| 20260906011037 | 79 | 52 | 1.0 | 13.0 | 0.00 | 0.00 | 0.00 | 83 | 1013.9 |
| 20260906005037 | 81 | 78 | 3.0 | 8.0 | 0.00 | 0.00 | 0.00 | 82 | 1013.8 |
| 20260906004037 | 81 | 44 | 4.0 | 12.0 | 0.00 | 0.00 | 0.00 | 82 | 1013.7 |
| 20260906003037 | 82 | 306 | 2.0 | 9.0 | 0.00 | 0.00 | 0.00 | 82 | 1013.5 |
| 20260906002038 | 83 | 20 | 3.0 | 13.0 | 0.00 | 0.00 | 0.00 | 81 | 1013.5 |
| 20260906001037 | 83 | 260 | 4.0 | 9.0 | 0.00 | 0.00 | 0.00 | 80 | 1013.4 |
| 20260906000037 | 84 | 117 | 4.0 | 13.0 | 0.00 | 0.00 | 0.00 | 80 | 1013.2 |
| 20260905235037 | 85 | 23 | 2.0 | 12.0 | 0.00 | 0.00 | 0.00 | 78 | 1013.2 |
| 20260905234037 | 87 | 103 | 3.0 | 13.0 | 0.00 | 0.00 | 0.00 | 77 | 1013.2 |
| 20260905233037 | 89 | 9 | 7.0 | 15.0 | 0.00 | 0.00 | 0.00 | 74 | 1013.1 |
| 20260905230037 | 90 | 323 | 3.0 | 11.0 | 0.00 | 0.00 | 0.00 | 70 | 1012.7 |
| 20260905225037 | 91 | 313 | 0.0 | 11.0 | 0.00 | 0.00 | 0.00 | 70 | 1012.6 |
| 20260905224037 | 91 | 69 | 2.0 | 14.0 | 0.00 | 0.00 | 0.00 | 69 | 1012.5 |
| 20260905223037 | 91 | 313 | 2.0 | 9.0 | 0.00 | 0.00 | 0.00 | 69 | 1012.6 |
| 20260905221037 | 92 | 19 | 7.0 | 11.0 | 0.00 | 0.00 | 0.00 | 68 | 1012.6 |
| 20260905220037 | 92 | 338 | 2.0 | 12.0 | 0.00 | 0.00 | 0.00 | 69 | 1012.6 |
| 20260905215037 | 93 | 331 | 9.0 | 10.0 | 0.00 | 0.00 | 0.00 | 68 | 1012.6 |
| 20260905214037 | 92 | 347 | 2.0 | 10.0 | 0.00 | 0.00 | 0.00 | 68 | 1012.5 |
| 20260905213037 | 93 | 11 | 10.0 | 14.0 | 0.00 | 0.00 | 0.00 | 69 | 1012.7 |
| 20260905212037 | 93 | 30 | 2.0 | 11.0 | 0.00 | 0.00 | 0.00 | 68 | 1012.6 |
| 20260905210037 | 93 | 338 | 5.0 | 8.0 | 0.00 | 0.00 | 0.00 | 69 | 1012.8 |
| 20260905200037 | 94 | 264 | 1.0 | 9.0 | 0.00 | 0.00 | 0.00 | 67 | 1013.0 |
| 20260905195037 | 94 | 330 | 2.0 | 12.0 | 0.00 | 0.00 | 0.00 | 68 | 1013.0 |
| 20260905194037 | 93 | 261 | 7.0 | 8.0 | 0.00 | 0.00 | 0.00 | 67 | 1012.9 |
| 20260905193036 | 93 | 273 | 2.0 | 7.0 | 0.00 | 0.00 | 0.00 | 67 | 1013.1 |
| 20260905192036 | 94 | 264 | 4.0 | 9.0 | 0.00 | 0.00 | 0.00 | 66 | 1013.2 |
| 20260905191037 | 93 | 348 | 2.0 | 8.0 | 0.00 | 0.00 | 0.00 | 67 | 1013.3 |
| 20260905190036 | 93 | 279 | 1.0 | 6.0 | 0.00 | 0.00 | 0.00 | 68 | 1013.5 |
| 20260905185036 | 94 | 275 | 2.0 | 7.0 | 0.00 | 0.00 | 0.00 | 66 | 1013.5 |
| 20260905184036 | 93 | 272 | 0.0 | 8.0 | 0.00 | 0.00 | 0.00 | 69 | 1013.5 |
| 20260905182036 | 94 | 271 | 2.0 | 8.0 | 0.00 | 0.00 | 0.00 | 65 | 1013.8 |
| 20260905181037 | 94 | 331 | 6.0 | 9.0 | 0.00 | 0.00 | 0.00 | 66 | 1013.8 |
| 20260905180036 | 94 | 276 | 3.0 | 6.0 | 0.00 | 0.00 | 0.00 | 66 | 1013.9 |
| 20260905175036 | 94 | 61 | 0.0 | 9.0 | 0.00 | 0.00 | 0.00 | 65 | 1014.0 |
| 20260905174036 | 94 | 263 | 1.0 | 7.0 | 0.00 | 0.00 | 0.00 | 65 | 1014.1 |
| 20260905173036 | 94 | 263 | 6.0 | 6.0 | 0.00 | 0.00 | 0.00 | 65 | 1013.9 |
| 20260905172036 | 93 | 278 | 0.0 | 6.0 | 0.00 | 0.00 | 0.00 | 66 | 1014.1 |
| 20260905171039 | 92 | 268 | 0.0 | 7.0 | 0.00 | 0.00 | 0.00 | 68 | 1014.2 |
| 20260905170037 | 92 | 272 | 2.0 | 7.0 | 0.00 | 0.00 | 0.00 | 67 | 1014.2 |
| 20260905164036 | 92 | 288 | 0.0 | 7.0 | 0.00 | 0.00 | 0.00 | 68 | 1014.3 |
| 20260905163036 | 91 | 261 | 3.0 | 7.0 | 0.00 | 0.00 | 0.00 | 70 | 1014.3 |
| 20260905162036 | 91 | 270 | 3.0 | 8.0 | 0.00 | 0.00 | 0.00 | 72 | 1014.2 |
| 20260905161036 | 91 | 271 | 0.0 | 6.0 | 0.00 | 0.00 | 0.00 | 71 | 1014.2 |
| 20260905160036 | 91 | 275 | 4.0 | 7.0 | 0.00 | 0.00 | 0.00 | 69 | 1014.3 |
| 20260905154036 | 90 | 270 | 4.0 | 8.0 | 0.00 | 0.00 | 0.00 | 69 | 1014.3 |
| 20260905153036 | 90 | 265 | 2.0 | 7.0 | 0.00 | 0.00 | 0.00 | 69 | 1014.4 |
| 20260905152036 | 89 | 268 | 0.0 | 6.0 | 0.00 | 0.00 | 0.00 | 75 | 1014.1 |
| 20260905151036 | 89 | 267 | 2.0 | 4.0 | 0.00 | 0.00 | 0.00 | 74 | 1014.0 |
| 20260905150036 | 89 | 270 | 3.0 | 7.0 | 0.00 | 0.00 | 0.00 | 73 | 1014.0 |
| 20260905145036 | 88 | 276 | 2.0 | 7.0 | 0.00 | 0.00 | 0.00 | 73 | 1014.1 |
| 20260905144036 | 88 | 269 | 2.0 | 3.0 | 0.00 | 0.00 | 0.00 | 77 | 1014.1 |
| 20260905143036 | 87 | 264 | 2.0 | 6.0 | 0.00 | 0.00 | 0.00 | 78 | 1014.1 |
| 20260905142036 | 86 | 272 | 1.0 | 7.0 | 0.00 | 0.00 | 0.00 | 81 | 1014.4 |
| 20260905141036 | 84 | 265 | 6.0 | 6.0 | 0.00 | 0.00 | 0.00 | 80 | 1014.2 |
| 20260905140036 | 84 | 259 | 4.0 | 7.0 | 0.00 | 0.00 | 0.00 | 83 | 1014.2 |
| 20260905135037 | 83 | 271 | 3.0 | 7.0 | 0.00 | 0.00 | 0.00 | 83 | 1014.1 |
| 20260905134036 | 83 | 274 | 2.0 | 4.0 | 0.00 | 0.00 | 0.00 | 85 | 1014.1 |
| 20260905133035 | 82 | 278 | 3.0 | 4.0 | 0.00 | 0.00 | 0.00 | 86 | 1014.1 |
| 20260905132035 | 81 | 274 | 2.0 | 6.0 | 0.00 | 0.00 | 0.00 | 87 | 1014.1 |
| 20260905131035 | 80 | 267 | 1.0 | 2.0 | 0.00 | 0.00 | 0.00 | 89 | 1014.2 |
| 20260905130036 | 80 | 267 | 1.0 | 2.0 | 0.00 | 0.00 | 0.00 | 90 | 1014.2 |
| 20260905125035 | 79 | 267 | 1.0 | 2.0 | 0.00 | 0.00 | 0.00 | 91 | 1014.0 |
| 20260905124036 | 78 | 267 | 0.0 | 1.0 | 0.00 | 0.00 | 0.00 | 91 | 1014.0 |
| 20260905123036 | 78 | 267 | 1.0 | 1.0 | 0.00 | 0.00 | 0.00 | 91 | 1014.1 |
| 20260905122035 | 77 | 267 | 0.0 | 1.0 | 0.00 | 0.00 | 0.00 | 92 | 1013.9 |
| 20260905121035 | 77 | 267 | 0.0 | 0.0 | 0.00 | 0.00 | 0.00 | 93 | 1013.9 |
| 20260905120036 | 76 | 267 | 0.0 | 1.0 | 0.00 | 0.00 | 0.00 | 94 | 1013.8 |
| 20260905115035 | 76 | 267 | 0.0 | 2.0 | 0.00 | 0.00 | 0.00 | 94 | 1013.7 |
| 20260905113035 | 77 | 267 | 0.0 | 2.0 | 0.00 | 0.00 | 0.00 | 93 | 1013.7 |
| 20260905112035 | 77 | 267 | 0.0 | 0.0 | 0.00 | 0.00 | 0.00 | 92 | 1013.8 |
| 20260905111035 | 77 | 267 | 0.0 | 0.0 | 0.00 | 0.00 | 0.00 | 92 | 1013.7 |
| 20260905110036 | 78 | 267 | 0.0 | 0.0 | 0.00 | 0.00 | 0.00 | 91 | 1013.7 |
| 20260905104035 | 77 | 267 | 0.0 | 1.0 | 0.00 | 0.00 | 0.00 | 92 | 1013.8 |